COSMOS 1275 DEB, 12699

Orbit data source: Space-Track

COSMOS 1275 DEB, 12699 is space debris in LEO originally from a launch on Thu, 04 Jun 1981 UTC launched from the Plesetsk Missile And Space Complex (PKMTR). Debris objects in space refer to the collection of defunct objects orbiting the Earth. Examples of debris include non-operational satellites, rocket bodies, and fragments generated from explosions, collisions, or faulty payload assembly.

Loading next visibility...
Identifier
12699, 1981-053AT
Orbit
LEO
Country
Flag of CISCIS
Related business
Manufacturer
Unknown
Mission
Spacecraft
Bus & Motor
Unknown
Mass
Unknown
Launch date (UTC)
1981-06-04 (45 years ago)
Launch vehicle
Unknown
Launch site
Plesetsk Missile And Space Complex (PKMTR)
Object type
Payload
Rocket body
Debris
Shape & HBR
Unknown shape, 0.1 m
Radar Cross Section
Small (<0.1 m²)

Expand to show TLE details & history
Last TLE update: 20 hours ago

TLE from 20 hours ago
0 COSMOS 1275 DEB
1 12699U 81053AT  26119.12471662  .00001008  00000-0  86390-3 0  9990
2 12699  82.9506   2.5674 0082509 202.4004 310.5395 13.84423057238207
Epoch: 2026-04-29T02:59Z
TLE epoch observation values (Epoch: 2026-04-29T02:59:35.515Z)
Latitude
27.59589°
Longitude
-83.10727°
Altitude
912.62 km
Speed
7.418 km/s
True Right ascension
11h 55m 31s
True Declination
27° 27' 29"
Sunlit
Object was in full shadow at epoch
Visualization orbit readout
Latitude
Unknown
Longitude
Unknown
Altitude
Unknown
Speed
Unknown
Apparent Right ascension
Unknown
Apparent Declination
Unknown
Sunlit
N/A
Visualization observer readout
Local Sidereal Time
06:45:48
Azimuth
Unknown
Elevation
Unknown
Doppler factor
Unknown
Orbital elements
Apogee altitude
1,005.801 km
Perigee altitude
884.95 km
Semi-major axis
7,323.513 km
Eccentricity
0.00825
Inclination
82.9506°
RAAN
2.5674°
Arg. of periapsis
202.4004°
True anomaly
309.81614°
Mean anomaly
310.5395°
Eccentric anomaly
310.17831°
Mean motion
3.46309 °/min
Orbital period
103.95 mins
BSTAR
0.0008639
Loading maneuver chart data...
Computing Atmospheric mass density...
Loading historical data...
Loading historical data...
Loading historical data...
Loading historical data...
Loading historical data...
Loading historical data...
Loading historical data...

Documentation

Showing up to 5 results
|